Temp
9 10 11 11 11 11 10 9 9 9 9 9 9 10 10 10 11 11 12 12 13 13 13 14 14 14 14 15 17 18 18 18 18 17 17 18 18 17 16 16 17 16 17 17 16 16 16
7 8 10 10 10 11 11 10 9 9 8 8 9 9 10 10 10 11 12 12 12 13 13 13 13 13 12 12 18 18 18 18 17 17 18 18 18 18 17 16 17 17 15 16 16 16 17
7 8 8 8 10 10 11 11 11 10 9 8 8 9 9 10 9 10 11 12 12 12 13 13 13 13 12 16 18 18 18 18 18 18 18 18 18 18 18 17 18 18 17 16 16 16 16
3 4 7 9 10 10 10 10 10 11 10 10 9 9 8 9 9 9 10 11 12 12 12 13 12 12 13 17 18 18 18 18 18 18 18 18 18 18 17 18 17 17 16 16 17 16 17
3 3 3 4 7 9 11 10 10 10 10 10 11 9 8 9 9 9 10 10 12 12 13 13 12 12 14 17 18 19 18 18 18 18 18 18 18 17 17 15 14 13 15 16 17 16 16
3 2 2 3 3 4 7 10 11 11 10 10 10 9 8 8 8 9 9 10 12 13 13 12 10 11 16 17 17 18 18 18 18 18 18 18 17 13 12 13 14 16 16 15 15 18 17
3 3 2 2 3 3 3 3 7 10 11 11 10 9 8 8 8 7 8 10 12 11 11 14 13 14 16 17 17 18 19 19 18 18 16 15 14 14 14 15 15 16 16 16 16 17 16
1 2 3 3 2 2 3 3 3 4 9 10 10 10 8 8 8 8 8 9 10 9 9 14 14 13 15 15 15 18 18 18 17 15 15 14 14 14 15 15 15 16 16 15 17 16 16
1 0 2 3 2 2 2 2 3 3 3 9 9 10 8 7 7 7 8 10 9 9 8 12 14 13 15 16 16 18 18 19 16 14 14 13 16 15 16 17 17 17 16 17 17 15 16
1 1 1 2 3 3 2 2 2 3 3 4 8 8 7 6 6 7 8 9 10 10 9 12 12 14 14 16 16 18 18 19 16 15 13 14 15 16 16 16 16 16 17 17 16 15 14
1 1 1 1 2 2 3 2 2 2 3 3 4 5 6 5 7 8 9 9 10 10 9 14 13 15 15 17 18 18 18 18 15 14 14 15 15 15 15 16 16 16 17 17 16 14 15
1 1 2 1 1 2 2 2 1 2 2 3 3 4 4 5 6 9 9 9 10 9 9 14 15 14 14 16 17 17 18 18 17 14 15 15 15 15 15 17 16 17 17 14 12 12 13
1 1 1 1 1 1 2 2 2 1 1 2 2 3 4 4 5 7 7 9 9 8 13 15 14 14 14 14 16 16 15 15 14 14 14 15 15 16 16 16 16 16 14 12 11 11 13
1 1 1 1 1 1 2 2 2 1 1 1 2 2 4 4 6 6 7 8 9 11 11 14 15 14 14 14 15 15 15 14 15 14 11 13 14 15 16 16 15 16 14 11 15 11 13
2 1 1 1 1 1 1 2 2 2 1 1 2 2 2 4 6 6 7 8 11 10 13 14 15 14 14 15 15 15 14 13 14 13 14 12 14 15 16 16 16 15 14 14 10 9 9
1 1 1 1 1 1 1 2 1 2 1 1 2 1 2 4 5 6 6 9 11 12 13 13 14 14 13 13 15 14 13 14 15 13 15 14 15 15 16 16 16 16 14 13 10 14 14
1 1 1 1 1 1 1 1 2 1 1 1 2 2 3 3 5 6 7 8 10 13 13 12 12 13 14 13 13 13 13 16 14 13 15 13 14 14 15 15 15 14 14 12 12 10 12
1 1 1 1 1 1 1 1 1 1 1 1 1 1 4 4 5 6 7 8 10 12 12 12 12 12 14 13 13 13 14 15 16 14 14 13 12 12 14 15 15 14 14 12 10 13 9
1 1 1 1 1 1 1 1 1 1 1 1 2 3 4 5 5 6 8 8 9 11 11 11 12 12 13 15 15 13 13 16 16 14 13 13 12 12 13 13 14 15 14 13 10 8 10
2 1 1 1 2 1 1 1 1 0 0 1 1 2 4 4 7 7 7 8 8 10 10 11 11 12 13 13 13 14 14 15 14 14 15 15 11 12 13 13 13 14 14 12 12 8 10
1 1 1 1 2 2 1 0 1 1 0 1 1 3 5 4 5 6 8 8 8 9 10 11 10 10 12 13 13 14 14 14 14 13 13 13 13 12 13 14 14 15 14 12 13 12 12
1 1 1 1 1 1 1 0 0 1 0 0 1 3 6 6 6 5 6 8 8 8 9 10 10 10 11 11 13 14 14 13 13 12 12 11 13 13 13 13 13 15 14 12 13 13 12
1 1 1 1 1 1 1 0 -0 0 0 0 1 4 6 7 5 5 6 7 8 9 10 11 11 11 10 11 13 14 14 15 13 12 11 11 9 9 12 10 12 9 12 12 13 12 13
1 1 0 1 1 1 0 0 -0 1 -0 1 0 3 4 4 6 6 7 7 8 9 9 10 11 10 12 13 14 13 11 11 12 11 11 9 9 6 6 7 9 13 12 13 12 12 11
1 1 0 1 1 0 0 -0 0 0 0 0 1 2 4 3 6 7 7 7 8 9 8 10 11 11 12 12 10 11 8 12 11 8 9 8 6 6 8 7 10 13 11 11 12 12 10
1 1 1 1 0 0 0 0 -0 -0 -0 -1 1 1 2 4 5 8 7 8 7 7 7 9 10 11 11 8 8 10 9 11 11 11 9 8 6 8 4 7 8 10 12 12 12 10 9
2 1 1 1 0 -0 -0 -0 -0 0 -1 -1 0 1 1 3 6 7 7 7 8 7 6 7 9 10 11 3 5 8 10 10 9 10 8 6 5 6 1 5 7 9 12 13 11 10 11
1 1 0 -0 -0 -0 -1 -0 -1 -0 0 -0 -0 1 1 2 3 5 7 8 8 8 5 7 7 8 5 7 7 7 4 7 8 9 9 9 7 4 3 4 9 11 11 11 10 12 13
0 0 -0 -0 -0 -1 -1 -1 -1 -1 -0 -0 -1 -0 1 2 3 4 6 6 7 8 9 9 9 8 9 7 4 3 5 2 7 8 9 10 9 8 8 8 10 11 11 13 14 13 12
Height
1517 1517 1518 1518 1518 1518 1518 1520 1521 1522 1522 1522 1523 1522 1522 1521 1520 1518 1516 1515 1514 1512 1508 1507 1505 1504 1502 1500 1496 1495 1494 1493 1493 1494 1495 1496 1497 1497 1497 1496 1495 1495 1490 1488 1491 1489 1490
1511 1512 1512 1513 1514 1514 1514 1515 1516 1516 1517 1518 1519 1519 1519 1519 1518 1516 1514 1512 1512 1509 1506 1505 1504 1502 1502 1500 1493 1493 1494 1493 1493 1494 1495 1497 1497 1497 1496 1495 1495 1492 1490 1488 1488 1489 1490
1505 1506 1506 1506 1507 1509 1511 1511 1511 1512 1511 1512 1514 1515 1515 1515 1515 1514 1512 1510 1509 1506 1504 1503 1501 1500 1499 1492 1491 1492 1493 1493 1493 1494 1495 1496 1497 1497 1496 1493 1492 1490 1491 1490 1490 1491 1490
1498 1499 1500 1501 1502 1502 1504 1505 1508 1508 1508 1508 1509 1509 1511 1511 1512 1510 1510 1508 1506 1504 1502 1500 1499 1499 1492 1488 1488 1490 1492 1492 1493 1494 1495 1495 1495 1494 1495 1492 1491 1492 1495 1500 1490 1491 1491
1490 1492 1493 1494 1495 1497 1498 1500 1501 1503 1504 1506 1505 1506 1507 1507 1508 1508 1507 1506 1503 1501 1499 1497 1497 1497 1489 1485 1486 1488 1490 1491 1492 1493 1493 1494 1494 1492 1493 1495 1499 1501 1508 1499 1493 1489 1491
1483 1484 1486 1487 1489 1490 1492 1493 1496 1497 1500 1502 1502 1501 1503 1504 1505 1505 1504 1502 1500 1497 1494 1495 1494 1499 1487 1484 1484 1485 1487 1489 1491 1492 1492 1493 1492 1495 1498 1500 1511 1504 1504 1501 1500 1489 1488
1473 1475 1477 1480 1482 1484 1487 1488 1488 1491 1494 1496 1499 1499 1499 1500 1502 1502 1504 1500 1499 1496 1490 1489 1487 1485 1484 1482 1483 1483 1485 1487 1489 1491 1494 1493 1497 1503 1496 1493 1494 1496 1498 1499 1494 1488 1491
1463 1465 1468 1471 1474 1477 1479 1482 1485 1485 1486 1490 1494 1496 1495 1497 1500 1501 1502 1500 1498 1497 1489 1482 1481 1480 1480 1482 1484 1480 1483 1485 1487 1493 1493 1497 1500 1491 1491 1489 1492 1493 1498 1498 1490 1491 1488
1451 1453 1457 1461 1464 1468 1472 1475 1478 1480 1483 1483 1489 1492 1492 1495 1498 1498 1500 1499 1497 1495 1494 1475 1470 1470 1473 1477 1478 1476 1480 1481 1484 1492 1494 1499 1491 1487 1492 1489 1491 1492 1495 1492 1492 1490 1488
1439 1442 1445 1449 1455 1458 1463 1467 1471 1476 1479 1479 1482 1487 1489 1494 1499 1495 1496 1496 1494 1494 1496 1474 1466 1461 1465 1471 1474 1473 1476 1479 1484 1489 1494 1493 1487 1487 1490 1490 1490 1497 1488 1488 1490 1497 1510
1428 1430 1434 1437 1443 1449 1454 1458 1464 1469 1473 1476 1478 1482 1485 1491 1493 1492 1495 1495 1493 1495 1508 1461 1460 1459 1460 1464 1465 1467 1473 1475 1482 1485 1491 1491 1487 1489 1490 1489 1486 1493 1486 1488 1490 1500 1501
1414 1417 1421 1427 1429 1437 1444 1449 1455 1461 1467 1471 1474 1476 1481 1486 1488 1491 1493 1494 1496 1500 1498 1459 1454 1457 1461 1460 1462 1465 1470 1474 1477 1483 1485 1486 1483 1484 1484 1483 1483 1482 1487 1494 1499 1504 1514
1399 1403 1408 1414 1419 1424 1432 1439 1445 1452 1459 1465 1470 1471 1475 1482 1485 1488 1492 1495 1497 1499 1464 1456 1453 1454 1457 1460 1462 1463 1469 1474 1482 1492 1493 1486 1485 1480 1480 1483 1483 1486 1495 1517 1523 1524 1517
1383 1388 1394 1401 1407 1414 1421 1427 1435 1443 1451 1458 1464 1468 1468 1475 1482 1486 1490 1494 1488 1470 1463 1449 1447 1452 1457 1456 1461 1463 1468 1476 1474 1479 1495 1496 1500 1482 1477 1479 1486 1485 1493 1517 1512 1528 1513
1365 1372 1379 1386 1394 1402 1410 1417 1425 1434 1444 1452 1459 1461 1463 1468 1477 1483 1488 1482 1465 1466 1455 1453 1448 1454 1456 1453 1456 1461 1468 1472 1470 1471 1485 1494 1490 1476 1476 1476 1480 1487 1495 1492 1514 1522 1529
1347 1354 1363 1372 1380 1390 1398 1407 1416 1425 1436 1446 1450 1456 1456 1464 1473 1479 1481 1465 1461 1454 1452 1451 1454 1447 1456 1455 1456 1462 1467 1461 1464 1464 1464 1478 1486 1479 1476 1475 1476 1479 1484 1500 1511 1512 1512
1327 1336 1345 1356 1366 1376 1386 1396 1407 1417 1428 1439 1447 1451 1446 1457 1470 1472 1459 1456 1457 1452 1453 1454 1453 1449 1447 1451 1451 1460 1460 1455 1456 1462 1464 1471 1478 1484 1479 1478 1479 1485 1488 1493 1498 1512 1515
1307 1317 1327 1339 1350 1363 1374 1384 1396 1408 1421 1431 1436 1441 1439 1450 1461 1455 1450 1454 1455 1451 1452 1453 1452 1451 1446 1445 1450 1454 1454 1451 1448 1453 1466 1466 1477 1490 1480 1470 1470 1474 1480 1485 1507 1503 1514
1289 1298 1309 1322 1335 1349 1362 1372 1384 1394 1407 1420 1426 1432 1436 1439 1446 1440 1444 1448 1451 1449 1449 1451 1451 1447 1445 1442 1447 1448 1448 1442 1445 1450 1459 1463 1479 1492 1486 1479 1473 1474 1474 1477 1488 1498 1505
1269 1279 1292 1306 1319 1334 1350 1362 1374 1388 1399 1412 1419 1426 1426 1432 1423 1429 1435 1437 1445 1445 1448 1448 1448 1447 1447 1445 1441 1443 1444 1442 1443 1445 1448 1453 1469 1474 1483 1476 1471 1476 1472 1474 1479 1502 1495
1253 1263 1275 1291 1304 1321 1338 1351 1364 1378 1391 1402 1405 1405 1402 1409 1419 1417 1426 1427 1435 1440 1442 1445 1447 1447 1448 1450 1444 1443 1441 1442 1444 1445 1448 1452 1466 1466 1462 1460 1463 1464 1467 1473 1472 1474 1483
1237 1249 1261 1278 1292 1309 1326 1340 1354 1369 1384 1394 1392 1395 1398 1398 1408 1421 1420 1418 1424 1435 1436 1439 1443 1442 1446 1450 1443 1441 1443 1445 1442 1445 1448 1451 1461 1459 1463 1463 1463 1463 1462 1468 1467 1467 1470
1224 1239 1250 1266 1281 1299 1316 1331 1345 1360 1375 1378 1385 1390 1393 1394 1403 1413 1398 1407 1419 1430 1432 1433 1436 1440 1442 1439 1440 1438 1439 1439 1440 1443 1444 1449 1458 1470 1469 1470 1468 1482 1464 1462 1460 1459 1459
1216 1230 1242 1257 1274 1291 1308 1323 1338 1349 1355 1367 1375 1387 1388 1389 1394 1387 1400 1408 1413 1417 1426 1430 1433 1438 1439 1439 1439 1437 1436 1435 1436 1438 1441 1448 1455 1470 1484 1482 1490 1455 1451 1450 1454 1452 1452
1211 1225 1237 1250 1268 1286 1302 1317 1330 1345 1357 1368 1376 1383 1386 1389 1388 1392 1399 1405 1416 1421 1424 1427 1429 1433 1438 1441 1444 1440 1447 1437 1438 1439 1437 1439 1450 1472 1477 1482 1466 1451 1451 1452 1451 1450 1446
1210 1221 1233 1249 1266 1284 1300 1314 1329 1344 1355 1368 1376 1381 1385 1385 1382 1390 1396 1400 1408 1414 1425 1423 1431 1433 1440 1443 1450 1444 1451 1436 1442 1439 1439 1439 1444 1454 1482 1479 1481 1452 1439 1439 1441 1456 1441
1211 1220 1234 1251 1267 1284 1299 1314 1328 1342 1354 1363 1372 1377 1385 1384 1381 1385 1386 1393 1404 1410 1416 1422 1425 1432 1435 1447 1452 1446 1445 1435 1440 1440 1447 1454 1459 1464 1487 1479 1462 1438 1436 1439 1457 1450 1432
1213 1225 1241 1256 1271 1287 1302 1316 1330 1341 1351 1358 1369 1378 1384 1386 1382 1380 1383 1387 1396 1400 1408 1412 1428 1425 1431 1436 1439 1438 1449 1433 1434 1429 1433 1436 1453 1468 1477 1480 1459 1429 1437 1444 1431 1426 1428
1220 1234 1248 1264 1278 1292 1306 1319 1331 1341 1351 1361 1369 1376 1385 1387 1383 1381 1382 1385 1388 1394 1404 1405 1404 1405 1411 1422 1428 1432 1434 1440 1429 1434 1426 1432 1426 1439 1442 1438 1423 1425 1424 1424 1424 1424 1427
Wind_Speed
28 27 26 24 23 22 24 29 28 27 25 26 24 23 21 19 18 17 16 17 17 18 19 20 19 19 16 8 7 2 3 1 1 2 6 6 5 2 1 4 3 3 5 2 2 8 8
30 30 29 28 26 24 22 22 27 29 29 28 27 25 23 21 19 18 17 17 17 18 19 20 19 17 14 5 4 6 1 4 1 2 7 7 1 3 3 5 1 1 4 5 5 8 7
34 35 33 30 29 27 26 24 23 22 27 29 28 25 24 21 19 19 18 18 18 19 19 19 18 17 18 17 7 9 5 1 1 3 5 3 3 3 4 4 4 2 2 4 0 4 3
32 32 35 36 34 31 29 27 25 23 22 23 25 24 22 21 20 19 19 18 19 20 20 19 17 15 12 6 14 12 8 4 2 3 4 4 7 5 4 4 4 3 3 0 4 2 1
36 34 32 33 34 35 33 31 28 25 23 23 21 22 21 20 19 20 19 19 19 20 21 19 15 8 11 5 13 11 11 7 3 5 8 6 6 1 2 2 4 5 1 1 4 5 2
36 38 36 34 31 32 33 34 32 28 25 23 22 20 20 19 17 20 17 18 18 19 18 14 12 7 12 4 6 12 10 10 9 5 3 3 1 3 3 3 4 3 2 3 5 3 5
36 35 38 38 35 31 31 29 31 30 27 24 23 21 19 17 18 16 19 11 10 7 6 11 3 7 10 4 7 11 12 12 9 3 2 3 4 3 7 5 3 2 3 5 3 5 4
47 43 37 39 39 35 32 29 27 25 28 26 25 21 19 17 17 17 15 11 6 6 10 17 21 28 28 24 8 10 9 8 6 5 2 4 4 6 3 3 3 2 3 4 4 3 3
39 43 48 41 38 38 36 32 29 26 24 26 25 22 18 15 15 17 15 10 8 11 5 13 17 18 26 17 11 12 14 11 4 5 5 5 4 5 3 3 2 2 3 2 2 5 0
43 42 38 51 43 39 38 35 32 27 24 24 25 22 17 10 13 17 14 6 11 7 3 6 5 9 15 12 5 18 15 11 2 9 7 5 3 4 3 3 5 2 3 3 4 5 3
51 47 41 38 54 45 41 38 35 30 25 24 23 21 17 16 8 6 6 2 5 4 3 3 4 2 15 19 8 13 16 9 8 7 5 6 3 4 4 5 5 6 1 1 1 3 1
55 52 46 42 39 53 43 41 37 33 28 25 23 22 19 23 22 13 9 6 5 3 7 4 8 7 7 7 4 8 13 8 5 5 1 4 2 4 6 3 6 2 3 5 4 3 1
58 56 52 47 41 44 53 43 39 36 32 27 24 23 24 23 23 21 16 6 3 5 4 4 5 6 5 6 4 5 7 7 6 4 3 2 3 2 4 2 3 2 5 3 4 3 4
59 59 56 51 44 44 53 45 42 39 32 29 26 22 28 29 22 14 7 4 10 6 6 4 2 5 8 5 6 5 5 6 2 5 3 6 5 5 4 5 7 3 6 5 2 2 3
61 59 57 54 50 42 46 57 42 39 36 30 24 24 29 33 25 20 8 9 6 6 4 3 1 5 4 5 6 5 7 8 9 8 7 5 5 3 2 0 4 3 2 4 6 3 2
60 61 58 56 52 46 45 55 51 41 35 31 29 25 34 34 29 21 5 17 8 5 3 3 6 4 8 7 6 8 8 6 6 10 5 8 1 2 2 2 2 3 6 3 3 2 3
60 61 60 57 55 50 45 48 56 43 35 36 29 13 15 31 32 18 13 11 16 19 2 3 3 3 6 7 9 6 9 3 7 4 5 5 5 3 1 4 6 2 1 4 5 4 4
62 60 62 58 60 52 44 46 52 51 39 39 27 6 18 40 18 11 17 8 12 19 4 4 2 3 3 6 6 8 10 9 15 13 8 6 5 5 9 1 2 4 7 6 4 4 1
60 60 63 61 64 55 47 44 52 53 50 44 19 14 25 48 14 17 9 16 7 6 8 4 4 4 3 1 3 7 7 7 14 8 9 7 1 1 7 5 2 3 5 4 5 4 6
57 66 63 61 69 58 50 46 49 51 48 50 15 7 15 33 36 16 21 17 22 15 8 3 2 2 2 4 4 3 6 4 11 12 8 10 4 8 9 8 5 4 5 5 6 4 5
55 56 58 63 68 60 53 48 54 57 52 52 19 10 13 14 22 18 19 14 19 17 19 15 3 6 2 5 3 4 2 3 2 6 6 6 8 6 3 3 5 5 5 8 6 6 6
52 52 59 62 71 63 54 51 54 61 55 51 13 6 14 15 26 20 14 22 24 21 9 14 6 9 10 5 5 3 2 2 5 4 7 2 4 3 3 3 1 4 4 7 4 3 5
50 51 50 60 70 65 57 51 59 64 58 33 24 22 13 17 20 16 25 21 19 19 23 11 22 10 5 15 21 23 16 11 4 3 9 8 7 3 4 3 3 5 8 7 6 5 7
48 49 45 65 68 62 55 54 64 68 67 33 27 26 6 5 13 23 19 17 24 23 12 25 18 6 10 20 10 2 2 6 9 3 3 7 7 3 3 3 2 6 2 3 8 6 5
42 44 42 71 67 58 55 62 70 65 65 46 35 23 8 5 9 12 17 23 16 23 17 14 26 22 17 11 3 0 4 1 2 5 3 1 6 3 5 4 5 3 5 7 7 9 6
36 42 58 68 61 53 64 65 60 62 57 54 34 36 10 2 12 20 15 19 16 12 5 18 30 23 6 2 3 3 5 5 5 2 2 6 6 5 3 5 8 8 5 8 5 5 8
32 44 66 64 54 56 65 66 60 57 56 55 44 29 15 3 4 23 13 17 22 16 3 7 19 17 16 3 2 4 9 4 6 10 5 3 3 5 3 3 7 7 4 11 5 8 18
41 61 60 56 53 59 58 57 52 55 51 47 41 42 11 15 11 8 13 20 23 34 7 7 8 11 2 7 5 4 4 6 3 4 7 7 7 3 3 3 7 11 6 9 7 3 28
58 58 49 51 54 50 50 51 50 48 51 43 29 44 25 17 8 6 13 13 25 26 26 20 8 7 15 4 1 3 2 1 4 4 1 3 6 6 9 7 4 16 6 16 6 10 27
Wind_Direction
268 267 266 265 264 263 258 255 257 262 263 269 273 270 275 283 293 301 305 303 305 307 313 318 323 321 329 306 262 222 334 30 147 191 176 165 146 150 202 250 284 189 270 300 173 138 134
268 265 264 264 264 264 263 262 259 256 258 264 270 270 270 275 285 296 301 303 302 303 308 315 319 317 315 282 231 197 153 58 9 165 169 169 132 353 275 257 200 185 6 39 73 136 153
267 268 265 262 261 261 262 262 262 265 257 258 264 263 267 271 279 289 297 302 301 300 304 311 314 312 298 266 212 196 201 323 18 166 166 218 322 331 301 287 316 227 31 21 170 178 227
270 266 265 263 261 259 258 258 261 260 266 261 262 256 260 270 273 282 293 302 299 297 300 303 303 305 270 245 200 204 218 217 190 210 230 279 326 300 237 289 18 85 37 5 252 130 253
269 267 266 264 261 259 256 257 256 259 260 266 263 254 260 266 272 279 290 301 299 295 295 294 291 291 266 234 211 206 225 231 231 280 258 272 286 247 334 56 30 21 307 281 304 164 144
268 269 265 265 263 263 258 254 255 255 257 260 265 252 258 264 270 274 287 301 300 293 286 284 260 285 253 195 192 210 223 234 243 283 199 248 122 60 23 72 166 169 280 304 247 282 196
252 256 265 263 264 262 264 260 253 251 250 255 260 253 250 260 274 273 292 311 300 280 263 233 222 246 286 282 245 215 228 228 221 234 159 11 76 204 213 176 180 192 213 217 274 267 226
249 250 252 259 259 256 257 259 261 255 246 246 251 253 246 254 268 273 286 294 279 299 307 268 258 255 255 263 288 219 208 173 163 194 119 26 232 227 228 191 186 231 194 240 267 281 127
267 254 246 247 252 255 254 254 252 253 255 239 243 247 242 245 258 268 277 275 261 287 264 282 246 238 239 230 223 221 188 183 142 142 194 172 226 126 217 229 152 271 202 235 211 347 93
263 264 255 242 244 249 252 250 251 249 249 247 234 238 230 230 263 263 264 214 280 216 302 264 227 235 190 184 228 215 192 178 131 200 158 232 259 185 218 240 123 290 217 289 14 49 268
261 260 258 252 240 241 246 250 244 246 238 246 234 225 213 201 226 233 181 285 127 150 306 217 185 179 175 167 149 197 189 166 166 169 134 243 177 192 193 223 162 223 179 208 162 154 51
260 257 255 251 246 239 239 241 238 236 235 234 237 218 210 205 225 212 188 6 176 65 245 290 156 165 152 198 161 132 175 190 132 108 119 247 208 183 216 151 203 205 150 55 48 88 101
257 256 253 249 248 246 233 236 239 230 230 227 231 217 208 207 224 227 252 265 197 204 316 225 185 158 180 161 183 144 156 150 152 120 239 301 233 246 190 96 34 109 65 347 355 16 220
256 253 251 248 243 240 232 232 230 227 226 220 223 225 208 208 206 212 206 230 220 211 247 314 173 118 182 139 216 164 130 162 237 98 125 172 300 195 183 179 179 170 138 154 253 195 266
252 251 248 244 240 237 233 231 224 225 219 213 213 222 222 207 199 204 194 220 209 219 230 254 46 130 215 209 151 137 177 182 190 167 158 154 267 279 169 59 154 164 139 167 104 12 56
248 247 244 242 237 230 231 228 227 217 217 208 204 214 227 204 197 202 202 225 227 222 333 354 225 184 177 189 150 160 175 193 207 187 156 203 163 282 236 159 261 144 158 81 24 171 255
246 242 241 238 233 226 227 226 225 218 210 201 199 203 229 196 191 202 217 212 224 244 19 356 313 304 216 170 175 170 196 241 192 170 130 138 138 247 249 196 194 112 155 70 119 138 179
246 240 235 233 228 222 224 222 217 216 201 191 193 197 185 180 186 209 218 173 237 237 229 274 281 256 255 182 168 185 188 200 181 148 165 193 151 197 209 250 145 181 194 154 136 209 157
243 236 231 226 222 220 217 215 208 197 194 191 194 185 180 175 190 212 200 208 241 227 219 211 246 238 349 254 183 186 190 223 160 147 163 182 189 111 337 359 12 206 194 139 109 88 186
236 235 228 220 214 216 210 211 207 200 193 191 185 174 176 191 212 200 193 200 208 232 249 177 252 318 306 307 228 238 205 215 189 188 187 137 147 168 209 214 154 197 196 174 145 127 176
228 232 222 214 211 211 206 205 203 203 193 181 184 207 191 181 212 206 197 190 190 213 208 193 249 205 195 235 316 210 171 119 125 168 151 144 201 188 223 200 178 207 194 180 169 189 168
222 223 218 210 206 208 203 200 201 201 189 195 177 191 184 197 204 197 199 207 194 206 186 206 192 200 206 236 226 123 101 232 197 191 158 175 211 163 156 118 154 220 236 190 214 170 262
215 213 214 205 200 202 202 195 194 196 185 197 188 205 197 204 184 186 210 197 197 195 219 193 210 220 219 225 245 266 259 245 213 222 176 157 137 118 219 23 37 336 223 200 209 196 181
207 205 209 196 195 199 192 191 189 193 190 192 193 194 214 197 189 207 187 197 192 203 202 211 229 195 228 255 269 331 4 231 183 120 197 143 116 94 165 51 251 244 309 224 213 234 228
196 199 207 189 195 194 191 187 192 187 194 193 197 198 199 220 208 206 197 196 191 206 225 223 220 237 245 306 327 353 328 11 43 26 58 87 125 100 142 186 294 258 211 168 176 258 193
191 199 188 185 189 189 181 182 184 182 192 196 196 199 207 209 215 200 193 186 195 201 209 227 232 232 255 134 165 216 232 192 197 114 59 79 58 125 143 151 214 233 240 165 110 271 178
188 185 180 182 182 180 179 184 179 186 192 198 198 199 224 279 223 196 188 188 186 189 198 184 195 228 234 155 190 162 247 219 164 165 173 74 36 151 117 197 283 244 211 149 132 238 173
175 169 174 175 175 175 183 184 181 190 195 202 202 206 219 233 297 201 187 176 181 199 169 161 169 221 83 180 170 202 191 220 157 177 172 156 141 171 85 74 278 175 121 172 214 213 181
162 166 169 164 168 174 182 187 187 197 201 202 202 215 220 253 241 256 214 191 193 201 190 178 186 166 184 162 164 104 173 67 157 206 92 202 181 179 180 209 207 187 219 215 240 200 181